NOVO250 KJFK-CYYZ

Flight info

Callsign NOVO250
Flight time N/A
Altitude 20000
Route KJFK DCT CANDR DCT MUGZY T454 LVZ V29 LECOR T335 CFB V252 FIXUS DCT WOZEE DCT CYYZ
Aircraft SF50/M-SB3/S

Departure

Time 2026-05-09 04:39
Airport John F. Kennedy International Airport (KJFK)

Arrival

Time N/A
Airport Toronto Pearson International Airport (CYYZ)
Time Latitude Longitude Altitude Speed Heading
2026-05-09 04:33 40.64810 -73.81611 19 ft 0 kts 121°
2026-05-09 04:38 40.64805 -73.81600 19 ft 14 kts 121°
2026-05-09 04:38 40.64634 -73.81210 22 ft 82 kts 120°
2026-05-09 04:38 40.64276 -73.80417 309 ft 101 kts 120°
2026-05-09 04:39 40.63894 -73.79591 805 ft 114 kts 124°
2026-05-09 04:39 40.63472 -73.78616 1287 ft 137 kts 110°
2026-05-09 04:39 40.63134 -73.77346 1707 ft 158 kts 133°
2026-05-09 04:39 40.62131 -73.76842 2260 ft 160 kts 192°
2026-05-09 04:40 40.61283 -73.77665 2955 ft 154 kts 238°
2026-05-09 04:40 40.60840 -73.78922 3694 ft 150 kts 261°
2026-05-09 04:40 40.60959 -73.80264 4441 ft 150 kts 289°
2026-05-09 04:40 40.61517 -73.81443 5124 ft 152 kts 298°
2026-05-09 04:41 40.62052 -73.82635 5794 ft 151 kts 292°
2026-05-09 04:41 40.62514 -73.83849 6451 ft 150 kts 291°
2026-05-09 04:41 40.62967 -73.85091 7059 ft 150 kts 290°
2026-05-09 04:41 40.63415 -73.86328 7685 ft 149 kts 290°
2026-05-09 04:42 40.63804 -73.87402 8303 ft 144 kts 290°
2026-05-09 04:42 40.64201 -73.88567 8875 ft 143 kts 288°
2026-05-09 04:42 40.64613 -73.89765 9454 ft 143 kts 289°
2026-05-09 04:43 40.65037 -73.90954 10013 ft 144 kts 290°
2026-05-09 04:43 40.65469 -73.92152 10489 ft 146 kts 290°
2026-05-09 04:43 40.65905 -73.93365 10963 ft 147 kts 290°
2026-05-09 04:43 40.66348 -73.94592 11431 ft 149 kts 290°
2026-05-09 04:44 40.66796 -73.95832 11901 ft 151 kts 291°
2026-05-09 04:44 40.67250 -73.97092 12374 ft 153 kts 291°
2026-05-09 04:44 40.67708 -73.98369 12857 ft 155 kts 291°
2026-05-09 04:44 40.68175 -73.99665 13325 ft 158 kts 291°
2026-05-09 04:45 40.68654 -74.00975 13801 ft 160 kts 292°
2026-05-09 04:45 40.69138 -74.02306 14226 ft 161 kts 290°
2026-05-09 04:45 40.69606 -74.03646 14690 ft 161 kts 291°
2026-05-09 04:45 40.70083 -74.04980 15071 ft 161 kts 291°
2026-05-09 04:46 40.70562 -74.06319 15421 ft 162 kts 291°
2026-05-09 04:46 40.71043 -74.07660 15788 ft 162 kts 291°
2026-05-09 04:46 40.71517 -74.08986 16160 ft 162 kts 291°
2026-05-09 04:46 40.71999 -74.10330 16541 ft 162 kts 290°
2026-05-09 04:47 40.72480 -74.11676 16916 ft 162 kts 290°
2026-05-09 04:47 40.72964 -74.13023 17294 ft 163 kts 290°
2026-05-09 04:47 40.73448 -74.14376 17666 ft 164 kts 290°
2026-05-09 04:47 40.73936 -74.15735 18045 ft 164 kts 290°
2026-05-09 04:48 40.74421 -74.17095 18401 ft 164 kts 290°
2026-05-09 04:48 40.74909 -74.18454 18730 ft 164 kts 290°
2026-05-09 04:48 40.75395 -74.19813 19058 ft 164 kts 290°
2026-05-09 04:48 40.75880 -74.21171 19381 ft 164 kts 289°
2026-05-09 04:49 40.76365 -74.22529 19720 ft 164 kts 289°
2026-05-09 04:49 40.76851 -74.23892 19986 ft 168 kts 289°
2026-05-09 04:49 40.77367 -74.25353 19994 ft 183 kts 290°
2026-05-09 04:49 40.77928 -74.26927 20002 ft 196 kts 290°
2026-05-09 04:50 40.78525 -74.28603 20013 ft 207 kts 290°
2026-05-09 04:50 40.79153 -74.30363 20009 ft 216 kts 290°
2026-05-09 04:50 40.79804 -74.32193 20008 ft 224 kts 290°
2026-05-09 04:50 40.80474 -74.34081 20008 ft 230 kts 291°
2026-05-09 04:51 40.81161 -74.36011 20019 ft 235 kts 291°
2026-05-09 04:51 40.81861 -74.37983 20010 ft 239 kts 291°
2026-05-09 04:51 40.82563 -74.39962 20009 ft 242 kts 291°
2026-05-09 04:51 40.83283 -74.41995 20009 ft 246 kts 291°
2026-05-09 04:52 40.84010 -74.44049 20009 ft 249 kts 291°
2026-05-09 04:52 40.84748 -74.46129 20010 ft 251 kts 291°
2026-05-09 04:52 40.85494 -74.48234 20008 ft 254 kts 291°
2026-05-09 04:52 40.86243 -74.50358 20010 ft 256 kts 291°
2026-05-09 04:53 40.87001 -74.52499 20007 ft 258 kts 291°
2026-05-09 04:53 40.87761 -74.54650 20007 ft 257 kts 291°
2026-05-09 04:53 40.88515 -74.56784 20006 ft 255 kts 291°
2026-05-09 04:53 40.89262 -74.58905 20004 ft 253 kts 291°
2026-05-09 04:54 40.90002 -74.61006 19998 ft 251 kts 291°
2026-05-09 04:54 40.90738 -74.63102 19998 ft 251 kts 291°
2026-05-09 04:54 40.91474 -74.65192 19998 ft 251 kts 291°
2026-05-09 04:54 40.92201 -74.67256 19997 ft 251 kts 291°
2026-05-09 04:55 40.92936 -74.69351 19996 ft 251 kts 291°
2026-05-09 04:55 40.93669 -74.71443 19996 ft 251 kts 291°
2026-05-09 04:55 40.94402 -74.73538 19997 ft 251 kts 291°
2026-05-09 04:55 40.95136 -74.75631 19997 ft 251 kts 291°
2026-05-09 04:56 40.95866 -74.77725 19996 ft 251 kts 291°
2026-05-09 04:56 40.96601 -74.79818 19995 ft 251 kts 291°
2026-05-09 04:56 40.97334 -74.81915 19995 ft 251 kts 291°
2026-05-09 04:56 40.98066 -74.84013 20022 ft 251 kts 291°
2026-05-09 04:57 40.98800 -74.86119 19995 ft 252 kts 290°
2026-05-09 04:57 40.99533 -74.88222 19997 ft 252 kts 291°
2026-05-09 04:57 41.00269 -74.90330 19996 ft 253 kts 291°
2026-05-09 04:57 41.01004 -74.92444 19993 ft 253 kts 290°
2026-05-09 04:58 41.01743 -74.94565 19995 ft 253 kts 291°
2026-05-09 04:58 41.02478 -74.96680 19992 ft 252 kts 291°
2026-05-09 04:58 41.03309 -74.98700 19988 ft 256 kts 299°
2026-05-09 04:58 41.04358 -75.00606 19987 ft 256 kts 300°
2026-05-09 04:59 41.05385 -75.02538 19989 ft 256 kts 298°
2026-05-09 04:59 41.06413 -75.04470 19989 ft 256 kts 300°
2026-05-09 04:59 41.07449 -75.06393 19990 ft 256 kts 300°
2026-05-09 04:59 41.08482 -75.08311 19985 ft 256 kts 299°
2026-05-09 05:00 41.09515 -75.10237 19982 ft 256 kts 300°
2026-05-09 05:00 41.10549 -75.12165 19980 ft 256 kts 300°
2026-05-09 05:00 41.11568 -75.14066 19980 ft 257 kts 300°
2026-05-09 05:00 41.12602 -75.15996 19979 ft 257 kts 300°
2026-05-09 05:01 41.13637 -75.17931 19972 ft 257 kts 300°
2026-05-09 05:01 41.14671 -75.19868 19971 ft 257 kts 300°
2026-05-09 05:01 41.15708 -75.21805 19972 ft 257 kts 300°
2026-05-09 05:01 41.16744 -75.23745 19969 ft 258 kts 300°
2026-05-09 05:02 41.17432 -75.25034 19969 ft 257 kts 300°
2026-05-09 05:02 41.18466 -75.26967 19969 ft 257 kts 300°
2026-05-09 05:02 41.19495 -75.28902 19967 ft 257 kts 300°
2026-05-09 05:02 41.20528 -75.30842 19968 ft 257 kts 299°
2026-05-09 05:03 41.21561 -75.32778 19969 ft 257 kts 300°
2026-05-09 05:03 41.22593 -75.34718 19968 ft 257 kts 300°
2026-05-09 05:03 41.23627 -75.36661 19968 ft 258 kts 300°
2026-05-09 05:03 41.24660 -75.38605 19970 ft 258 kts 300°
2026-05-09 05:04 41.25695 -75.40550 19973 ft 258 kts 300°
2026-05-09 05:04 41.26731 -75.42500 19996 ft 258 kts 299°
2026-05-09 05:04 41.27767 -75.44452 19974 ft 258 kts 299°
2026-05-09 05:04 41.28803 -75.46407 19975 ft 259 kts 299°
2026-05-09 05:05 41.29840 -75.48363 19977 ft 259 kts 299°
2026-05-09 05:05 41.30877 -75.50320 19971 ft 259 kts 299°
2026-05-09 05:05 41.31914 -75.52278 19971 ft 259 kts 299°
2026-05-09 05:05 41.32950 -75.54240 19971 ft 259 kts 299°
2026-05-09 05:06 41.33988 -75.56201 19971 ft 259 kts 299°
2026-05-09 05:06 41.35025 -75.58160 19973 ft 259 kts 299°
2026-05-09 05:06 41.36047 -75.60098 19970 ft 259 kts 299°
2026-05-09 05:06 41.37083 -75.62060 19973 ft 258 kts 299°
2026-05-09 05:07 41.38114 -75.64013 19962 ft 258 kts 299°
2026-05-09 05:07 41.39142 -75.65970 19964 ft 258 kts 299°
2026-05-09 05:07 41.40174 -75.67930 19962 ft 259 kts 299°
2026-05-09 05:07 41.41209 -75.69895 19964 ft 259 kts 299°
2026-05-09 05:08 41.42243 -75.71861 19963 ft 259 kts 299°
2026-05-09 05:08 41.43277 -75.73829 19964 ft 259 kts 299°
2026-05-09 05:08 41.44309 -75.75797 19967 ft 259 kts 299°
2026-05-09 05:08 41.45345 -75.77770 19966 ft 259 kts 299°
2026-05-09 05:09 41.46377 -75.79737 19969 ft 259 kts 299°
2026-05-09 05:09 41.47408 -75.81706 19971 ft 259 kts 299°
2026-05-09 05:09 41.48442 -75.83675 19968 ft 259 kts 299°
2026-05-09 05:09 41.49474 -75.85638 19969 ft 258 kts 299°
2026-05-09 05:10 41.50499 -75.87603 19969 ft 258 kts 299°
2026-05-09 05:10 41.51524 -75.89569 19968 ft 259 kts 299°
2026-05-09 05:10 41.52542 -75.91512 19971 ft 259 kts 299°
2026-05-09 05:10 41.53572 -75.93483 19969 ft 259 kts 299°
2026-05-09 05:11 41.54606 -75.95460 19967 ft 260 kts 298°
2026-05-09 05:11 41.55641 -75.97446 19971 ft 260 kts 298°
2026-05-09 05:11 41.56676 -75.99432 19968 ft 260 kts 298°
2026-05-09 05:11 41.57708 -76.01412 19964 ft 259 kts 298°
2026-05-09 05:12 41.58738 -76.03393 19963 ft 260 kts 298°
2026-05-09 05:12 41.59769 -76.05377 19964 ft 259 kts 298°
2026-05-09 05:12 41.60782 -76.07325 19966 ft 258 kts 298°
2026-05-09 05:12 41.61819 -76.09320 19963 ft 258 kts 298°
2026-05-09 05:13 41.62829 -76.11262 19963 ft 258 kts 298°
2026-05-09 05:13 41.63850 -76.13229 19962 ft 257 kts 298°
2026-05-09 05:13 41.64871 -76.15205 19965 ft 258 kts 298°
2026-05-09 05:13 41.65895 -76.17184 19966 ft 259 kts 298°
2026-05-09 05:14 41.66917 -76.19156 19973 ft 258 kts 298°
2026-05-09 05:14 41.67939 -76.21138 19971 ft 260 kts 298°
2026-05-09 05:14 41.68970 -76.23124 19965 ft 259 kts 298°
2026-05-09 05:14 41.69997 -76.25107 19967 ft 259 kts 298°
2026-05-09 05:15 41.71016 -76.27080 19964 ft 258 kts 298°
2026-05-09 05:15 41.72033 -76.29067 19961 ft 259 kts 298°
2026-05-09 05:15 41.73061 -76.31051 19962 ft 260 kts 298°
2026-05-09 05:15 41.74092 -76.33042 19966 ft 260 kts 298°
2026-05-09 05:16 41.75120 -76.35039 19965 ft 261 kts 298°
2026-05-09 05:16 41.76153 -76.37046 19959 ft 262 kts 298°
2026-05-09 05:16 41.77183 -76.39058 19959 ft 262 kts 298°
2026-05-09 05:16 41.78207 -76.41037 19962 ft 262 kts 298°
2026-05-09 05:17 41.79241 -76.43048 19962 ft 262 kts 297°
2026-05-09 05:17 41.80273 -76.45058 19965 ft 262 kts 298°
2026-05-09 05:17 41.81307 -76.47072 19983 ft 262 kts 298°
2026-05-09 05:17 41.82340 -76.49087 19963 ft 262 kts 297°
2026-05-09 05:18 41.83373 -76.51103 19956 ft 261 kts 297°
2026-05-09 05:18 41.84398 -76.53104 19955 ft 261 kts 297°
2026-05-09 05:18 41.85426 -76.55115 19955 ft 261 kts 297°
2026-05-09 05:18 41.86457 -76.57133 19956 ft 262 kts 297°
2026-05-09 05:19 41.87491 -76.59161 19954 ft 264 kts 297°
2026-05-09 05:19 41.88531 -76.61192 19958 ft 264 kts 297°
2026-05-09 05:19 41.89572 -76.63232 19958 ft 265 kts 297°
2026-05-09 05:19 41.90612 -76.65274 19953 ft 265 kts 297°
2026-05-09 05:20 41.91655 -76.67322 19956 ft 266 kts 297°
2026-05-09 05:20 41.92702 -76.69374 19956 ft 266 kts 297°
2026-05-09 05:20 41.93748 -76.71427 19956 ft 266 kts 297°
2026-05-09 05:20 41.94795 -76.73483 19955 ft 266 kts 297°
2026-05-09 05:21 41.95838 -76.75535 19953 ft 266 kts 297°
2026-05-09 05:21 41.96884 -76.77598 19953 ft 266 kts 297°
2026-05-09 05:21 41.97915 -76.79626 19954 ft 266 kts 297°
2026-05-09 05:21 41.98962 -76.81691 19953 ft 267 kts 297°
2026-05-09 05:22 42.00008 -76.83749 19954 ft 267 kts 297°
2026-05-09 05:22 42.01051 -76.85809 19952 ft 267 kts 297°
2026-05-09 05:22 42.02092 -76.87875 19951 ft 265 kts 297°
2026-05-09 05:22 42.03137 -76.89927 19948 ft 266 kts 297°
2026-05-09 05:23 42.04179 -76.91990 19947 ft 267 kts 297°
2026-05-09 05:23 42.05226 -76.94067 19947 ft 268 kts 297°
2026-05-09 05:23 42.06277 -76.96147 19947 ft 269 kts 297°
2026-05-09 05:23 42.07332 -76.98228 19948 ft 269 kts 297°
2026-05-09 05:24 42.08380 -77.00285 19949 ft 270 kts 297°
2026-05-09 05:24 42.09485 -77.02348 19948 ft 271 kts 300°
2026-05-09 05:24 42.10626 -77.04378 19950 ft 272 kts 300°
2026-05-09 05:24 42.11765 -77.06423 19753 ft 273 kts 299°
2026-05-09 05:25 42.12889 -77.08479 19481 ft 272 kts 299°
2026-05-09 05:25 42.14011 -77.10529 19212 ft 272 kts 299°
2026-05-09 05:25 42.16249 -77.14596 18683 ft 271 kts 299°
2026-05-09 05:26 42.17372 -77.16643 18421 ft 272 kts 299°
2026-05-09 05:26 42.18495 -77.18691 18156 ft 272 kts 299°
2026-05-09 05:26 42.19617 -77.20736 17848 ft 271 kts 299°
2026-05-09 05:26 42.20734 -77.22775 17550 ft 269 kts 299°
2026-05-09 05:27 42.21847 -77.24806 17216 ft 269 kts 300°
2026-05-09 05:27 42.22960 -77.26842 16759 ft 269 kts 300°
2026-05-09 05:27 42.24082 -77.28887 16316 ft 273 kts 300°
2026-05-09 05:27 42.25208 -77.30957 15885 ft 274 kts 300°
2026-05-09 05:28 42.26336 -77.33023 15447 ft 273 kts 300°
2026-05-09 05:28 42.27463 -77.35081 15030 ft 271 kts 300°
2026-05-09 05:28 42.28579 -77.37128 14608 ft 270 kts 300°
2026-05-09 05:28 42.29698 -77.39190 14194 ft 275 kts 300°
2026-05-09 05:29 42.30844 -77.41292 13783 ft 278 kts 301°
2026-05-09 05:29 42.31997 -77.43401 13329 ft 280 kts 301°
2026-05-09 05:29 42.33151 -77.45519 12897 ft 279 kts 301°
2026-05-09 05:29 42.34297 -77.47614 12463 ft 276 kts 301°
2026-05-09 05:30 42.35408 -77.49672 12018 ft 273 kts 301°
2026-05-09 05:30 42.36520 -77.51741 11580 ft 271 kts 301°
2026-05-09 05:30 42.37638 -77.53788 11151 ft 269 kts 302°
2026-05-09 05:30 42.38758 -77.55815 10728 ft 267 kts 302°
2026-05-09 05:31 42.39858 -77.57848 10306 ft 267 kts 301°
2026-05-09 05:31 42.40949 -77.59886 9895 ft 270 kts 301°
2026-05-09 05:31 42.42084 -77.61969 9650 ft 278 kts 301°
2026-05-09 05:31 42.43178 -77.64106 9426 ft 277 kts 300°
2026-05-09 05:32 42.44328 -77.66222 9219 ft 281 kts 303°
2026-05-09 05:32 42.45498 -77.68309 9009 ft 283 kts 303°
2026-05-09 05:32 42.46683 -77.70486 8831 ft 283 kts 302°
2026-05-09 05:32 42.47814 -77.72634 8638 ft 285 kts 302°
2026-05-09 05:33 42.48980 -77.74814 8425 ft 286 kts 303°
2026-05-09 05:33 42.50172 -77.76967 8219 ft 286 kts 303°
2026-05-09 05:33 42.51340 -77.79162 8007 ft 287 kts 302°
2026-05-09 05:33 42.52500 -77.81378 7834 ft 288 kts 302°
2026-05-09 05:34 42.53685 -77.83572 7633 ft 288 kts 303°
2026-05-09 05:34 42.54870 -77.85760 7422 ft 288 kts 303°
2026-05-09 05:34 42.56050 -77.87963 7224 ft 288 kts 303°
2026-05-09 05:34 42.57217 -77.90151 7025 ft 285 kts 303°
2026-05-09 05:35 42.58366 -77.92295 6821 ft 284 kts 303°
2026-05-09 05:35 42.59521 -77.94454 6628 ft 282 kts 303°
2026-05-09 05:35 42.60674 -77.96610 6438 ft 281 kts 303°
2026-05-09 05:35 42.61823 -77.98762 6233 ft 282 kts 303°
2026-05-09 05:36 42.62975 -78.00924 6020 ft 282 kts 303°
2026-05-09 05:36 42.64126 -78.03083 5811 ft 282 kts 304°
2026-05-09 05:36 42.65279 -78.05245 5603 ft 282 kts 304°
2026-05-09 05:36 42.66431 -78.07407 5396 ft 283 kts 304°
2026-05-09 05:37 42.67583 -78.09573 5190 ft 283 kts 304°
2026-05-09 05:37 42.68737 -78.11741 4987 ft 283 kts 304°
2026-05-09 05:37 42.69890 -78.13910 4780 ft 283 kts 304°
2026-05-09 05:37 42.71044 -78.16085 4573 ft 283 kts 304°
2026-05-09 05:38 42.72198 -78.18256 4360 ft 283 kts 304°
2026-05-09 05:38 42.73351 -78.20430 4153 ft 284 kts 304°
2026-05-09 05:38 42.74503 -78.22608 3947 ft 284 kts 303°
2026-05-09 05:38 42.75654 -78.24777 3741 ft 281 kts 304°
2026-05-09 05:39 42.76780 -78.26903 3538 ft 280 kts 303°
2026-05-09 05:39 42.77911 -78.29047 3367 ft 278 kts 303°
2026-05-09 05:39 42.79036 -78.31177 3365 ft 277 kts 303°
2026-05-09 05:39 42.80161 -78.33308 3366 ft 278 kts 303°
2026-05-09 05:40 42.81289 -78.35445 3363 ft 279 kts 303°
2026-05-09 05:40 42.82422 -78.37598 3363 ft 279 kts 303°
2026-05-09 05:40 42.83550 -78.39744 3356 ft 279 kts 303°
2026-05-09 05:40 42.84680 -78.41884 3362 ft 278 kts 304°
2026-05-09 05:41 42.85804 -78.44019 3362 ft 277 kts 303°
2026-05-09 05:41 42.86931 -78.46162 3361 ft 278 kts 303°
2026-05-09 05:41 42.88060 -78.48310 3362 ft 277 kts 303°
2026-05-09 05:41 42.89184 -78.50453 3349 ft 278 kts 303°
2026-05-09 05:42 42.90310 -78.52598 3348 ft 278 kts 303°
2026-05-09 05:42 42.91421 -78.54717 3345 ft 278 kts 303°
2026-05-09 05:42 42.92544 -78.56862 3344 ft 278 kts 303°
2026-05-09 05:42 42.93667 -78.59006 3345 ft 278 kts 303°
2026-05-09 05:43 42.94790 -78.61151 3344 ft 278 kts 303°
2026-05-09 05:43 42.95915 -78.63308 3345 ft 278 kts 303°
2026-05-09 05:43 42.97039 -78.65459 3345 ft 278 kts 303°
2026-05-09 05:43 42.98161 -78.67613 3347 ft 278 kts 303°
2026-05-09 05:44 42.99272 -78.69739 3342 ft 278 kts 303°
2026-05-09 05:44 43.00391 -78.71889 3342 ft 277 kts 303°
2026-05-09 05:44 43.01512 -78.74040 3341 ft 278 kts 303°
2026-05-09 05:44 43.02632 -78.76195 3328 ft 278 kts 303°
2026-05-09 05:45 43.03751 -78.78345 3326 ft 278 kts 303°
2026-05-09 05:45 43.04872 -78.80502 3325 ft 278 kts 303°
2026-05-09 05:45 43.05993 -78.82657 3324 ft 278 kts 303°
2026-05-09 05:45 43.07112 -78.84813 3323 ft 277 kts 303°
2026-05-09 05:46 43.08230 -78.86967 3322 ft 278 kts 303°
2026-05-09 05:46 43.09347 -78.89124 3326 ft 278 kts 303°
2026-05-09 05:46 43.10456 -78.91270 3327 ft 279 kts 303°
2026-05-09 05:46 43.11578 -78.93433 3327 ft 279 kts 303°
2026-05-09 05:47 43.12699 -78.95603 3326 ft 279 kts 303°
2026-05-09 05:47 43.13820 -78.97778 3326 ft 279 kts 303°
2026-05-09 05:47 43.14941 -78.99947 3327 ft 279 kts 303°
2026-05-09 05:47 43.16063 -79.02122 3327 ft 280 kts 303°
2026-05-09 05:48 43.17186 -79.04297 3328 ft 279 kts 303°
2026-05-09 05:48 43.18304 -79.06471 3340 ft 279 kts 303°
2026-05-09 05:48 43.19421 -79.08648 3337 ft 278 kts 302°
2026-05-09 05:48 43.20537 -79.10812 3338 ft 278 kts 303°
2026-05-09 05:49 43.21274 -79.12241 3337 ft 278 kts 303°
2026-05-09 05:49 43.22388 -79.14412 3326 ft 278 kts 302°
2026-05-09 05:49 43.23864 -79.17289 3322 ft 278 kts 303°
2026-05-09 05:49 43.24980 -79.19463 3322 ft 279 kts 303°
2026-05-09 05:50 43.25735 -79.20934 3324 ft 278 kts 303°
2026-05-09 05:50 43.26847 -79.23105 3324 ft 278 kts 303°
2026-05-09 05:50 43.27945 -79.25252 3324 ft 278 kts 302°
2026-05-09 05:50 43.29058 -79.27424 3324 ft 278 kts 302°
2026-05-09 05:51 43.30172 -79.29609 3319 ft 279 kts 302°
2026-05-09 05:51 43.31284 -79.31784 3317 ft 278 kts 302°
2026-05-09 05:51 43.32394 -79.33961 3317 ft 278 kts 302°
2026-05-09 05:51 43.33503 -79.36135 3320 ft 278 kts 302°
2026-05-09 05:52 43.34612 -79.38315 3314 ft 278 kts 302°
2026-05-09 05:52 43.35723 -79.40493 3316 ft 278 kts 302°
2026-05-09 05:52 43.36829 -79.42672 3320 ft 278 kts 302°
2026-05-09 05:52 43.37939 -79.44853 3310 ft 278 kts 302°
2026-05-09 05:53 43.39048 -79.47030 3309 ft 277 kts 302°
2026-05-09 05:53 43.40151 -79.49205 3314 ft 277 kts 302°
2026-05-09 05:53 43.41244 -79.51355 3311 ft 278 kts 302°
2026-05-09 05:53 43.42348 -79.53535 3310 ft 277 kts 302°
2026-05-09 05:54 43.43455 -79.55717 3314 ft 278 kts 302°
2026-05-09 05:54 43.44559 -79.57901 3313 ft 278 kts 302°
2026-05-09 05:54 43.45663 -79.60082 3312 ft 278 kts 302°
2026-05-09 05:54 43.46769 -79.62271 3313 ft 278 kts 302°
2026-05-09 05:55 43.47880 -79.64473 2977 ft 279 kts 302°
2026-05-09 05:55 43.48967 -79.66622 2620 ft 264 kts 301°
2026-05-09 05:55 43.49977 -79.68616 2257 ft 245 kts 301°
2026-05-09 05:55 43.50931 -79.70505 2008 ft 235 kts 301°
2026-05-09 05:56 43.52030 -79.72174 1995 ft 239 kts 317°
2026-05-09 05:56 43.53464 -79.73352 1992 ft 243 kts 334°
2026-05-09 05:56 43.55111 -79.73918 1991 ft 247 kts 352°
2026-05-09 05:56 43.56807 -79.73789 1997 ft 248 kts 10°
2026-05-09 05:57 43.58417 -79.72969 1993 ft 238 kts 28°
2026-05-09 05:57 43.59689 -79.71662 1999 ft 227 kts 45°
2026-05-09 05:57 43.60769 -79.70095 1995 ft 222 kts 49°
2026-05-09 05:57 43.61831 -79.68525 1820 ft 226 kts 47°
2026-05-09 05:58 43.62913 -79.66983 1512 ft 222 kts 47°
2026-05-09 05:58 43.63937 -79.65486 1200 ft 207 kts 48°
2026-05-09 05:58 43.64908 -79.64067 918 ft 200 kts 47°
2026-05-09 05:58 43.65861 -79.62695 658 ft 197 kts 46°
2026-05-09 05:59 43.66770 -79.61390 632 ft 164 kts 47°